Regional Weather Roundup
Issued by NWS Upton, NY

Current Version | Previous Version | Text Only | Print | Product List | Glossary On
Versions: 1 2 3 4 5 6 7 8 9 10 11 12 13 14 15 16 17 18 19 20 21 22 23 24 25 26 27
000
ASUS41 KOKX 210609
RWROKX

Regional Weather Roundup
National Weather Service New York NY
100 AM EST SUN JAN 21 2018

Note: "FAIR" indicates few or no clouds below 12,000 feet with no
significant weather and/or obstructions to visibility.

NYZ071-072-176-178-NJZ106-104-210700-
New York City Metro Area

CITY           SKY/WX    TMP DP  RH WIND       PRES   REMARKS
Central Park   FAIR      44  28  53 W5        30.06S
Bronx Bot Gard   N/A     43  28  56 SW3       30.05R
Bronx Lehman C NOT AVBL
LaGuardia Arpt FAIR      43  28  55 SW5       30.04S
Queens College   N/A     43  30  61 SW6         N/A
Kennedy Intl   FAIR      33  28  81 SW6       30.06S WCI  28
Breezy Point     N/A     37 N/A N/A W6          N/A  WCI  33
Brooklyn Coll  NOT AVBL
Staten Island    N/A     41  30  65 SW6         N/A
Newark/Liberty FAIR      38  28  67 SW6       30.05S WCI  33
Teterboro      FAIR      37  27  67 S6        30.04S WCI  32
$$

NYZ177-179-078>081-210700-
Long Island New York

CITY           SKY/WX    TMP DP  RH WIND       PRES   REMARKS
Jones Beach      N/A     39 N/A N/A W8          N/A  WCI  34
Wantagh          N/A     37  32  81 W6          N/A  WCI  33
Matinecock Pt    N/A     43 N/A N/A SW9         N/A
Farmingdale    FAIR      37  28  70 W3        30.05R
MacArthur/ISP  FAIR      37  27  67 W7        30.04R WCI  32
Shirley        FAIR      33  27  78 W3        30.04S
Mt Sinai Harb    N/A    N/A N/A N/A W6          N/A
Westhampton    FAIR      24  18  77 CALM      30.04S
East Hampton   FAIR      40  27  59 NW6       30.01F
Southold         N/A     39  28  65 W5          N/A
Montauk        NOT AVBL
$$

NYZ052-065-067-210700-
Hudson Valley

CITY           SKY/WX    TMP DP  RH WIND       PRES   REMARKS
White Plains   FAIR      30  25  81 NW5       30.02S WCI  25
Larchmont Harb   N/A     36 N/A N/A SW3         N/A
Croton On Huds   N/A     34 N/A N/A SE3         N/A
Somers           N/A     37  28  70 S1          N/A
Brewster       NOT AVBL
Newburgh       CLEAR     34  27  75 CALM      30.03S
Montgomery     FAIR      25  20  81 CALM      30.02R
Otisville        N/A     32  27  80 S5          N/A  WCI  27
Warwick          N/A     34  27  75 W3          N/A
Suffern          N/A     39  28  65 S1          N/A
Poughkeepsie   FAIR      25  22  88 CALM      30.03R
Albany         FAIR      33  24  69 CALM      30.03R
$$

NJZ001-105-106-008-010-013-015-019>022-104-210700-
New Jersey

CITY           SKY/WX    TMP DP  RH WIND       PRES   REMARKS
Newark/Liberty FAIR      38  28  67 SW6       30.05S WCI  33
Teterboro      FAIR      37  27  67 S6        30.04S WCI  32
Caldwell       FAIR      33  27  78 CALM      30.05S
Somerville     FAIR      28  27  96 CALM      30.04S
Linden         FAIR      40  28  60 CALM      30.06S
Perth Amboy      N/A     37 N/A N/A W6          N/A  WCI  33
Sussex         FAIR      24  22  91 CALM      30.03F
Andover        NOT AVBL
Trenton        FAIR      39  28  64 W5        30.07R
Millville      FAIR      29  26  89 SE5       30.09S WCI  24
Atlantic City  FAIR      33  27  78 CALM      30.09S
Wrightstown    FAIR      38  29  69 W7        30.05S WCI  33
Toms River     NOT AVBL
Belmar         FAIR      40  28  62 W6        30.07S
$$

PAZ047>061-062-071-210700-
Eastern Pennsylvania

CITY           SKY/WX    TMP DP  RH WIND       PRES   REMARKS
Philadelphia   FAIR      33  27  78 CALM      30.09S
Allentown      FAIR      33  25  72 SW7       30.06S WCI  27
Scranton       FAIR      33  26  75 W6        30.06R WCI  28
$$

CTZ002-004>006-009-010-012-RIZ004-006-007-MAZ004-011-015-210700-
Southern New England

 In CT

CITY           SKY/WX    TMP DP  RH WIND       PRES   REMARKS
Bradley Intl   FAIR      28  25  88 CALM      30.01R
Hartford       FAIR      28  26  92 CALM      30.02R
Danbury        FAIR      26  23  88 CALM      30.03S
Wtrbury/Oxford FAIR      35  26  69 W3        30.02R
Norwalk Harbor   N/A     34 N/A N/A CALM        N/A
Bridgeport     FAIR      30  26  85 CALM      30.04S
Meriden        FAIR      25  24  96 CALM      30.03R
New Haven      FAIR      26  22  84 N5        30.03S WCI  20
Chester        FAIR      39  27  60 W6        30.01S WCI  35
Groton         FAIR      37  27  67 W8        30.02R WCI  31
Willimantic    FAIR      35  27  72 CALM      30.00R

 In RI

CITY           SKY/WX    TMP DP  RH WIND       PRES   REMARKS
Providence     FAIR      31  26  82 S3        29.99R
Block Island   FAIR      38  32  79 W12       30.02R WCI  30
Westerly       FAIR      38  30  73 W6        30.02R WCI  33

In MA

CITY           SKY/WX    TMP DP  RH WIND       PRES   REMARKS
Boston         MOCLDY    41  28  60 W10       29.95F
Worcester      FAIR      36  25  64 W14       29.93F WCI  27
Westfield      FAIR      33  27  78 W7        29.99R WCI  27
Provincetown   FAIR      37  30  75 MISG      29.97R
Nantucket      FAIR      37  32  82 W9        29.99R WCI  30
$$

ANZ330-335-338-340-345-350-353-355-210700-
Coastal Marine Observations


STATION/POSITION TIME  SKY/WX   TEMP    WIND        PRES    VSBY  WAVE
                                AIR SEA DIR/SP/G                  HT/PER
                 (UTC)          (F)     (DEG/KT/KT) (MB)    (MI)  (FT/S)
NY Harb Entrance 0450            41 39  240/  8/  8 1017.4          3/ 7
20 S Fire Island 0450            43 41  260/ 10/ 12 1017.6          4/ 7
15 E Barnegat Li 0530               41                N/A           3/ 7
Hudson Canyon    0450            50 49  270/ 12/ 14 1017.5          6/ 7
Kings Point      0548               33  200/  6/  6 1018.3
Execution Rocks  NOT AVBL
Western LI Sound NOT AVBL
Central LI Sound 0545            37     280/  6/  6   N/A           1
Robbins Reef     0548                   250/ 11/ 12 1018.2
$$


>>>>>>>>>>>>>>>>>>>>>>>>>>>> KEY <<<<<<<<<<<<<<<<<<<<<<<<<<<
>                                                          <
>     SKY/WX - Sky Condition/Present Weather               <
>     TMP    - Temperature in Fahrenheit                   <
>     DP     - Dew Point in Fahrenheit                     <
>     RH     - Relative Humidity in Percent                <
>     WIND   - Direction (from) and Speed in MPH           <
>     PRES   - Mean Sea Level Pressure (inches of Hg)      <
>     WCI    - Wind Chill Index                            <
>     VSB    - Visibility in Miles                         <
>     HX     - Heat Index                                  <
>     TC     - Temperature in Celsius                      <
>     VRB    - Varibale Wind Direction                     <
>                                                          <
>>>>>>>>>>>>>>>>>>>>>>>>>>>> KEY <<<<<<<<<<<<<<<<<<<<<<<<<<<




USA.gov is the U.S. government's official web portal to all federal, state and local government web resources and services.